[[{"header":{"parameterUnit":"m.s-1","parameterCategory":1,"la1":30.2991,"la2":30.254,"lo1":-89.0895,"lo2":-89.0444,"dy":0.0017,"dx":0.0017,"nx":28,"ny":28,"refTime":"2025-07-22T03:00:00:Z","depth":0,"parameterNumber":2,"parameterNumberName":"U-component_of_WINDS"},"data":[0,0,0,0,0,0,0,0,0,0,0,0,0,0,0,0,0,0,0,0,0,0,0,0,0,0,0,0,0,0,0,0,0,0,0,0,0,0,0,0,0,0,0,0,0,0,0,0,0,0,0,0,0,0,0,0,0,0,2.7443,2.7444,0,2.7537,2.7538,2.7539,2.7505,2.7503,2.7501,2.7499,2.76,2.7605,2.7609,0,0,0,0,0,0,0,0,0,0,0,0,0,2.724,2.7244,2.7443,2.7444,2.7445,2.7536,2.7538,2.7539,2.7506,2.7503,2.75,2.7498,2.7599,2.7604,2.761,0,0,0,0,0,0,0,0,0,0,0,0,0,2.7331,2.7246,2.7443,2.7439,2.744,2.7536,2.7538,2.7539,2.7506,2.7503,2.75,2.7497,2.7597,2.7604,2.7611,2.7717,0,0,2.7632,2.7635,0,0,0,0,0,0,0,0,2.7326,2.7338,2.7439,2.744,2.7441,2.7506,2.7503,2.7599,2.7507,2.7481,2.7499,2.7495,2.7572,2.7581,2.7605,2.7722,2.7726,2.7633,2.7637,2.764,2.7642,0,0,0,0,0,0,0,2.7319,2.7334,2.748,2.744,2.7441,2.7435,2.7444,2.7521,2.7543,2.7483,2.7481,2.7492,2.7572,2.7599,2.7607,2.7728,2.7632,2.7639,2.7643,2.7646,2.7937,2.7941,0,0,0,0,0,0,2.7312,2.7329,2.7477,2.7483,2.7374,2.7441,2.7452,2.7488,2.7542,2.7547,2.7495,2.749,2.7588,2.7599,2.7611,2.7738,2.764,2.7646,2.765,2.7934,2.7938,2.7942,0,0,0,0,0,0,2.7308,2.7326,2.7473,2.7405,2.7424,2.7448,2.7489,2.7492,2.7518,2.7551,2.7555,2.7518,2.7586,2.7601,2.7691,2.7741,2.7649,2.7656,2.793,2.7935,2.794,2.7995,0,0,0,0,0,0,2.7302,2.7324,2.7363,2.7406,2.7427,2.755,2.7493,2.7496,2.753,2.7525,2.7574,2.7579,2.7585,2.768,2.7698,2.7749,2.7661,2.7925,2.7932,2.7938,2.7989,2.8002,2.8013,0,0,0,0,0,2.7295,2.7376,2.7366,2.7384,2.7477,2.7553,2.7565,2.7568,2.7534,2.7575,2.7596,2.7577,2.7734,2.769,2.7709,2.7764,2.7922,2.793,2.7938,2.7983,2.7999,2.8012,0,0,0,0,0,0,2.734,2.7382,2.737,2.7468,2.7507,2.7547,2.7598,2.7585,2.7636,2.7629,2.7634,2.7645,2.7737,2.776,2.771,2.787,2.7823,2.7835,2.7851,2.7866,2.7878,2.7869,2.7667,0,0,0,0,0,2.7361,2.7417,2.7452,2.7535,2.7555,2.7573,2.7606,2.7606,2.7647,2.7664,2.7692,2.7734,2.7793,2.7831,2.7887,2.7993,2.8003,2.804,2.8052,2.8062,2.8072,2.8129,2.8146,2.7968,2.7968,2.7968,0,0,2.7405,2.7435,2.7471,2.7544,2.7574,2.7634,2.7587,2.7653,2.7697,2.7675,2.7759,2.7782,2.783,2.7928,2.7973,2.795,2.8124,2.8072,2.8079,2.8084,2.8139,2.8156,2.8171,2.7974,2.7973,2.7972,0,0,2.7515,2.7544,2.7615,2.7647,2.7693,2.7705,2.7722,2.7765,2.7778,2.7864,2.7848,2.7903,2.8004,2.8038,2.8069,2.8195,2.818,2.8214,2.8275,2.8331,2.8345,2.8358,2.8401,2.8417,2.8224,2.8224,2.8224,0,2.7564,2.7652,2.7654,2.7721,2.7754,2.7736,2.7809,2.784,2.7903,2.7927,2.79,2.8027,2.8058,2.8163,2.8194,2.822,2.8241,2.8207,2.8343,2.8355,2.8367,2.8409,2.8425,2.8228,2.8227,2.8227,2.8227,0,2.771,2.7772,2.7824,2.7883,2.7923,2.7993,2.8007,2.8048,2.8045,2.806,2.8149,2.8185,2.8248,2.8274,2.8272,2.838,2.8364,2.8341,2.8293,2.8387,2.8427,2.8443,2.8233,2.8232,2.8231,2.823,0,0,2.7848,2.7909,2.7928,2.7954,2.8005,2.8053,2.8124,2.8183,2.8218,2.8263,2.8322,2.8409,2.8387,2.8422,2.8425,2.8475,2.8571,2.8445,2.8446,2.8466,2.8691,2.8707,2.8725,2.8562,2.8566,2.8568,2.8687,0,2.7961,2.8081,2.8086,2.8196,2.8253,2.8238,2.8299,2.8338,2.8355,2.8408,2.8428,2.8488,2.8456,2.8477,2.8526,2.8549,2.8616,2.8541,2.8618,2.862,2.8603,2.8746,2.8762,2.8872,2.8702,2.8705,2.8707,0,2.8107,2.8155,2.827,2.8313,2.8337,2.8392,2.8448,2.8498,2.8543,2.8552,2.8592,2.8588,2.8661,2.8613,2.8715,2.8664,2.8696,2.8713,2.8717,2.8723,2.8667,2.8753,2.8908,2.8923,2.8731,2.8729,2.8728,0,2.8194,2.8288,2.8369,2.8393,2.8445,2.8484,2.8508,2.8549,2.8585,2.8636,2.8659,2.8718,2.875,2.8796,2.8809,2.8773,2.8911,2.8864,2.8921,2.892,2.8948,2.8945,2.9107,2.8973,2.8973,2.8972,2.8972,0,2.8317,2.8388,2.8408,2.8457,2.8537,2.8544,2.8624,2.8646,2.8683,2.8738,2.873,2.8782,2.8797,2.8853,2.8864,2.8946,2.8961,2.8971,2.8973,2.897,2.8969,2.899,2.8982,2.8977,2.8976,2.8975,2.8974,0,2.8426,2.8442,2.8529,2.8572,2.8585,2.8642,2.8679,2.8728,2.8745,2.8815,2.8832,2.8859,2.8924,2.8942,2.9021,2.9028,2.9125,2.9121,2.9109,2.9108,2.9163,2.9157,2.9342,2.9367,2.9218,2.922,2.9221,0,2.8502,2.8555,2.8605,2.864,2.8665,2.8723,2.876,2.877,2.8809,2.8865,2.8907,2.8971,2.9022,2.9127,2.9155,2.9216,2.9212,2.9273,2.922,2.9216,2.921,2.9206,2.9211,2.9281,2.9283,2.9284,2.9285,0,2.8635,2.864,2.8692,2.8748,2.8792,2.8837,2.888,2.891,2.8927,2.8972,2.9037,2.9077,2.9157,2.9221,2.9282,2.9309,2.93,2.9302,2.9318,2.9315,2.9305,2.9309,2.9133,2.9297,2.9296,2.9295,2.9294,2.9294,2.8728,2.8775,2.8817,2.8875,2.8909,2.895,2.8997,2.9021,2.9075,2.9139,2.9144,2.9215,2.9261,2.9342,2.9373,2.943,2.9412,2.9435,2.9441,2.9446,2.9449,2.9298,2.9441,2.9441,2.9441,2.944,2.944,0,2.8858,2.8885,2.8939,2.8999,2.9046,2.9034,2.9082,2.9122,2.9184,2.9227,2.9277,2.9353,2.9416,2.9449,2.9512,2.9551,2.9549,2.9567,2.9563,2.9569,2.9463,2.9442,2.9568,2.9568,2.9568,2.9568,2.9568,2.9568,2.8931,2.901,2.9022,2.9118,2.9145,2.9213,2.9241,2.928,2.9314,2.9398,2.9449,2.9471,2.9511,2.9576,2.9633,2.9642,2.9665,2.9685,2.9691,2.959,2.9577,2.9564,2.9544,2.969,2.969,2.9792,2.9793,2.9794]},{"header":{"parameterUnit":"m.s-1","parameterCategory":1,"la1":30.2991,"la2":30.254,"lo1":-89.0895,"lo2":-89.0444,"dy":0.0017,"dx":0.0017,"nx":28,"ny":28,"refTime":"2025-07-22T03:00:00:Z","depth":0,"parameterNumber":3,"parameterNumberName":"V-component_of_WINDS"},"data":[0,0,0,0,0,0,0,0,0,0,0,0,0,0,0,0,0,0,0,0,0,0,0,0,0,0,0,0,0,0,0,0,0,0,0,0,0,0,0,0,0,0,0,0,0,0,0,0,0,0,0,0,0,0,0,0,0,0,3.5153,3.5154,0,3.5244,3.5245,3.5246,3.5233,3.5232,3.523,3.5229,3.5312,3.5316,3.532,0,0,0,0,0,0,0,0,0,0,0,0,0,3.4958,3.4962,3.5153,3.5154,3.5155,3.5244,3.5245,3.5246,3.5234,3.5232,3.523,3.5228,3.5311,3.5316,3.532,0,0,0,0,0,0,0,0,0,0,0,0,0,3.5045,3.4963,3.5153,3.516,3.5162,3.5244,3.5245,3.5247,3.5234,3.5232,3.523,3.5228,3.531,3.5315,3.532,3.5399,0,0,3.5337,3.5339,0,0,0,0,0,0,0,0,3.504,3.5052,3.5158,3.516,3.5162,3.5225,3.5207,3.5297,3.5235,3.5206,3.5229,3.5226,3.5285,3.5292,3.5314,3.5402,3.5406,3.5338,3.5341,3.5343,3.5345,0,0,0,0,0,0,0,3.5034,3.5048,3.5189,3.5159,3.5162,3.5155,3.5165,3.5224,3.5256,3.5209,3.5208,3.5219,3.5285,3.5308,3.5315,3.5407,3.5337,3.5342,3.5345,3.5348,3.5563,3.5566,0,0,0,0,0,0,3.5028,3.5043,3.5186,3.5192,3.5095,3.5161,3.5172,3.5207,3.5256,3.5261,3.5221,3.5218,3.53,3.5309,3.5318,3.5413,3.5343,3.5348,3.5351,3.5561,3.5564,3.5566,0,0,0,0,0,0,3.5024,3.5041,3.5182,3.5117,3.5135,3.5166,3.5206,3.521,3.5233,3.5266,3.527,3.524,3.5299,3.5311,3.5379,3.5415,3.5351,3.5355,3.5558,3.5562,3.5565,3.5602,0,0,0,0,0,0,3.5018,3.5039,3.5072,3.5118,3.5139,3.5245,3.5208,3.5213,3.5244,3.5241,3.5284,3.5289,3.5298,3.5371,3.5385,3.5421,3.536,3.5555,3.5559,3.5564,3.5597,3.5606,3.5614,0,0,0,0,0,3.5011,3.5076,3.5073,3.5091,3.518,3.5247,3.5258,3.527,3.5247,3.5278,3.5299,3.5288,3.5409,3.5378,3.5393,3.5432,3.5552,3.5558,3.5564,3.5594,3.5604,3.5614,0,0,0,0,0,0,3.5029,3.5082,3.508,3.5163,3.5201,3.5245,3.5284,3.5281,3.5323,3.5319,3.5329,3.5338,3.5407,3.5426,3.5391,3.551,3.5477,3.5486,3.5495,3.5505,3.5514,3.5507,3.5364,0,0,0,0,0,3.5043,3.5096,3.5139,3.5207,3.5227,3.5253,3.5282,3.5288,3.5326,3.5341,3.5367,3.5402,3.5448,3.5478,3.5522,3.56,3.5608,3.5634,3.5642,3.5649,3.5656,3.5698,3.5709,3.5585,3.5585,3.5585,0,0,3.5072,3.5108,3.514,3.5212,3.5242,3.5294,3.5266,3.5321,3.5359,3.5349,3.5416,3.5436,3.5475,3.5549,3.5582,3.5567,3.5692,3.5656,3.5661,3.5665,3.5705,3.5716,3.5727,3.5588,3.5588,3.5587,0,0,3.5151,3.5184,3.5245,3.5276,3.5324,3.534,3.5355,3.54,3.5414,3.5482,3.5475,3.5518,3.5597,3.5626,3.565,3.574,3.5731,3.5754,3.5796,3.5837,3.5847,3.5855,3.5886,3.5898,3.5761,3.5761,3.5761,0,3.5179,3.526,3.5275,3.5333,3.5364,3.536,3.542,3.5449,3.5507,3.5527,3.5509,3.5609,3.5635,3.5715,3.5737,3.5758,3.5772,3.5749,3.5845,3.5854,3.5862,3.5891,3.5903,3.5764,3.5763,3.5763,3.5763,0,3.5292,3.5348,3.5391,3.5451,3.5487,3.5545,3.5566,3.56,3.5603,3.562,3.5688,3.572,3.577,3.579,3.5792,3.587,3.5859,3.5843,3.581,3.5876,3.5904,3.5915,3.5767,3.5766,3.5765,3.5765,0,0,3.5384,3.5453,3.5469,3.5496,3.5548,3.559,3.5646,3.5699,3.5727,3.5767,3.5813,3.5881,3.5867,3.5895,3.59,3.5936,3.6004,3.5915,3.5916,3.593,3.609,3.6101,3.6114,3.5998,3.6001,3.6002,3.6086,0,3.5467,3.5572,3.5588,3.5678,3.5729,3.5727,3.5776,3.5811,3.5829,3.5872,3.589,3.5938,3.5916,3.5933,3.5969,3.5988,3.6036,3.5982,3.6039,3.6041,3.6029,3.6129,3.6141,3.6219,3.6097,3.6099,3.6101,0,3.5578,3.5625,3.5722,3.5768,3.5789,3.5834,3.5883,3.5925,3.5964,3.5975,3.6007,3.6008,3.6063,3.6029,3.6105,3.6068,3.6092,3.6105,3.6108,3.6113,3.6074,3.6136,3.6244,3.6256,3.6118,3.6117,3.6116,0,3.5634,3.5721,3.5791,3.5814,3.5869,3.59,3.5923,3.5961,3.5992,3.6033,3.6053,3.6099,3.6124,3.6159,3.6171,3.6145,3.6246,3.6213,3.6253,3.6253,3.6274,3.6272,3.6387,3.6291,3.629,3.629,3.629,0,3.5725,3.5784,3.5817,3.5859,3.5925,3.5941,3.6004,3.6025,3.6059,3.6103,3.6103,3.6143,3.6158,3.62,3.6209,3.627,3.6281,3.6289,3.6291,3.6289,3.6288,3.6304,3.6299,3.6293,3.6293,3.6292,3.6291,0,3.5799,3.5823,3.5899,3.5946,3.5959,3.6005,3.6043,3.6083,3.61,3.6156,3.617,3.6197,3.6247,3.6263,3.6322,3.6328,3.6399,3.6396,3.6387,3.6387,3.6427,3.6422,3.6555,3.6573,3.6465,3.6466,3.6467,0,3.5855,3.5901,3.5954,3.5986,3.6012,3.6062,3.6094,3.611,3.6143,3.6192,3.6225,3.6275,3.6317,3.6396,3.6418,3.6463,3.6461,3.6504,3.6467,3.6464,3.6461,3.6458,3.6462,3.6511,3.6512,3.6513,3.6514,0,3.5951,3.5962,3.601,3.6063,3.6102,3.6144,3.6183,3.6208,3.623,3.6266,3.632,3.6352,3.6414,3.6463,3.6509,3.653,3.6525,3.6525,3.6537,3.6535,3.6528,3.6532,3.6405,3.6522,3.6521,3.652,3.652,3.652,3.6017,3.6058,3.6103,3.6156,3.6189,3.6226,3.6266,3.629,3.6336,3.639,3.6396,3.6453,3.6489,3.6552,3.6575,3.6617,3.6604,3.6621,3.6625,3.6629,3.6633,3.6522,3.6625,3.6625,3.6625,3.6625,3.6624,0,3.6113,3.6142,3.6192,3.625,3.6291,3.6287,3.633,3.6364,3.6416,3.6452,3.6494,3.6554,3.6602,3.6629,3.6676,3.6705,3.6704,3.6716,3.6714,3.6719,3.6641,3.6627,3.6717,3.6717,3.6717,3.6717,3.6717,3.6717,3.6168,3.6237,3.6253,3.6337,3.6364,3.6423,3.6448,3.6482,3.6511,3.658,3.6621,3.664,3.6672,3.6721,3.6764,3.6771,3.6787,3.6802,3.6807,3.6734,3.6724,3.6715,3.6701,3.6806,3.6806,3.688,3.6881,3.6882]}]]